Copper Mountain, CO

7:51 AM MDT on May 25, 2017 (GMT -0600)
Copper Mountain

Weather History for KCCU - November, 2013

Change the Weather History Date:

Saturday, November 16, 2013

  Actual Average Record
Temperature  
Mean Temperature 22 °F -  
Max Temperature 24 °F - 46 °F (2016)
Min Temperature 19 °F - -2 °F (2014)
Degree Days  
Heating Degree Days 44    
Month to date heating degree days  
Cooling Degree Days 0    
Month to date cooling degree days  
Moisture  
Dew Point 15 °F    
Average Humidity 74    
Maximum Humidity 86    
Minimum Humidity 59    
Precipitation  
Precipitation 0.00 in - 0.00 in (2017)
Sea Level Pressure  
Sea Level Pressure 29.58 in    
Wind  
Wind Speed 25 mph (WSW)    
Max Wind Speed 51 mph    
Max Gust Speed 62 mph    
Visibility 1 miles    
Events Snow    
T = Trace of Precipitation, MM = Missing Value Source: NWS Daily Summary

Daily Weather History Graph

Daily Weather History Graph

Search for Another Location

Airport or City:

Trip Planner

Search our weather history database for the weather conditions in past years. The results will help you decide how hot, cold, wet, or windy it might be!

Date:

Astronomy

Nov. 16, 2013 Rise Set
Actual Time 6:50 AM MST 4:48 PM MST
Civil Twilight 6:21 AM MST 5:17 PM MST
Nautical Twilight 5:48 AM MST 5:49 PM MST
Astronomical Twilight 5:16 AM MST 6:21 PM MST
Moon 4:25 PM MST (11/16) 5:49 AM MST (11/16)
Length of Visible Light 10h 56m
Length of Day
9h 58m
Waxing Gibbous, 99% of the Moon is Illuminated
Nov 16
Waxing Gibbous
Nov 17
Full
Nov 25
Last Quarter
Dec 2
New
Dec 9
First Quarter

Hourly Weather History & Observations

Time (MST) Temp. Windchill Dew Point Humidity Pressure Visibility Wind Dir Wind Speed Gust Speed Precip Events Conditions
12:15 AM 23.0 °F 6.6 °F 17.6 °F 80% 29.63 in - West 25.3 mph - N/A   Overcast
12:35 AM 21.2 °F 5.2 °F 15.8 °F 80% 29.63 in - West 21.9 mph 34.5 mph N/A   Overcast
12:55 AM 23.0 °F 6.3 °F 17.6 °F 80% 29.61 in - West 26.5 mph 35.7 mph N/A   Overcast
1:15 AM 21.2 °F 2.4 °F 15.8 °F 80% 29.60 in - West 32.2 mph 36.8 mph N/A   Overcast
1:35 AM 21.2 °F 4.2 °F 14.0 °F 74% 29.61 in - West 25.3 mph 34.5 mph N/A   Overcast
1:55 AM 19.4 °F 0.8 °F 14.0 °F 80% 29.61 in - West 28.8 mph 40.3 mph N/A   Overcast
2:15 AM 19.4 °F -0.0 °F 14.0 °F 80% 29.60 in - West 32.2 mph 41.4 mph N/A   Overcast
2:35 AM 19.4 °F -1.8 °F 14.0 °F 80% 29.59 in - West 40.3 mph 50.6 mph N/A   Overcast
2:55 AM 19.4 °F -0.8 °F 14.0 °F 80% 29.59 in 0.2 mi WSW 35.7 mph 51.8 mph N/A Snow Snow
3:15 AM 19.4 °F 1.8 °F 14.0 °F 80% 29.61 in 0.2 mi WSW 25.3 mph 46.0 mph N/A Snow Snow
3:35 AM 19.4 °F 2.5 °F 12.2 °F 74% 29.61 in 0.5 mi WSW 23.0 mph 43.7 mph N/A Snow Light Snow
3:55 AM 19.4 °F 1.8 °F 12.2 °F 74% 29.62 in 1.2 mi WSW 25.3 mph 39.1 mph N/A Snow Light Snow
4:15 AM 19.4 °F 4.1 °F 12.2 °F 74% 29.62 in 1.5 mi West 18.4 mph 27.6 mph N/A Snow Light Snow
4:35 AM 19.4 °F 2.5 °F 12.2 °F 74% 29.61 in 0.8 mi West 23.0 mph 35.7 mph N/A Snow Light Snow
4:55 AM 19.4 °F 1.4 °F 12.2 °F 74% 29.60 in 0.8 mi WSW 26.5 mph 35.7 mph N/A Snow Light Snow
5:15 AM 19.4 °F 1.8 °F 12.2 °F 74% 29.60 in 0.5 mi WSW 25.3 mph 43.7 mph N/A Snow Light Snow
5:35 AM 19.4 °F 2.5 °F 12.2 °F 74% 29.60 in 0.5 mi WSW 23.0 mph 42.6 mph N/A Snow Light Snow
5:55 AM 19.4 °F 0.8 °F 12.2 °F 74% 29.59 in 0.5 mi WSW 28.8 mph 40.3 mph N/A Snow Light Snow
6:15 AM 21.2 °F 3.9 °F 12.2 °F 68% 29.59 in 0.2 mi SW 26.5 mph 41.4 mph N/A Snow Light Snow
6:25 AM 21.2 °F 4.9 °F 12.2 °F 68% 29.59 in 0.8 mi SW 23.0 mph 35.7 mph N/A Snow Light Snow
7:35 AM 23.0 °F 10.1 °F 12.2 °F 63% 29.61 in 1.2 mi SW 15.0 mph 36.8 mph N/A Snow Light Snow
7:55 AM 23.0 °F 8.7 °F 10.4 °F 59% 29.60 in 2.0 mi SW 18.4 mph 28.8 mph N/A Snow Light Snow
8:15 AM 23.0 °F 8.0 °F 10.4 °F 59% 29.60 in 0.8 mi SW 20.7 mph 34.5 mph N/A Snow Light Snow
8:35 AM 23.0 °F 8.3 °F 12.2 °F 63% 29.60 in 0.5 mi SW 19.6 mph 41.4 mph N/A Snow Light Snow
8:55 AM 23.0 °F 6.3 °F 12.2 °F 63% 29.60 in 0.2 mi SW 26.5 mph 41.4 mph N/A Snow Light Snow
9:15 AM 23.0 °F 5.4 °F 12.2 °F 63% 29.61 in 0.5 mi WSW 29.9 mph 44.9 mph N/A Snow Light Snow
9:35 AM 23.0 °F 4.9 °F 12.2 °F 63% 29.61 in 0.2 mi WSW 32.2 mph 41.4 mph N/A Snow Light Snow
9:55 AM 23.0 °F 8.0 °F 12.2 °F 63% 29.63 in 0.8 mi SW 20.7 mph 36.8 mph N/A Snow Light Snow
10:15 AM 23.0 °F 6.0 °F 14.0 °F 68% 29.62 in 1.5 mi WSW 27.6 mph 35.7 mph N/A Snow Light Snow
10:35 AM 24.8 °F 11.5 °F 14.0 °F 64% 29.63 in 3.0 mi SW 17.3 mph 31.1 mph N/A Snow Light Snow
10:55 AM 24.8 °F 11.5 °F 14.0 °F 64% 29.62 in 1.0 mi SW 17.3 mph 34.5 mph N/A Snow Light Snow
11:15 AM 24.8 °F 8.7 °F 14.0 °F 64% 29.60 in 3.0 mi South 26.5 mph 40.3 mph N/A Snow Light Snow
11:35 AM 24.8 °F 9.0 °F 14.0 °F 64% 29.59 in 1.0 mi South 25.3 mph 39.1 mph N/A Snow Light Snow
11:55 AM 24.8 °F 9.0 °F 14.0 °F 64% 29.58 in 1.2 mi South 25.3 mph 39.1 mph N/A Snow Light Snow
12:15 PM 24.8 °F 10.7 °F 14.0 °F 64% 29.57 in 0.8 mi South 19.6 mph 32.2 mph N/A Snow Light Snow
12:35 PM 24.8 °F 13.4 °F 15.8 °F 69% 29.56 in 1.2 mi SSW 12.7 mph 31.1 mph N/A Snow Light Snow
12:55 PM 24.8 °F 11.1 °F 14.0 °F 64% 29.56 in 1.0 mi SSW 18.4 mph 33.4 mph N/A Snow Light Snow
1:15 PM 24.8 °F 8.7 °F 14.0 °F 64% 29.56 in 0.5 mi South 26.5 mph 38.0 mph N/A Snow Light Snow
1:35 PM 24.8 °F 10.7 °F 15.8 °F 69% 29.54 in 1.8 mi South 19.6 mph 34.5 mph N/A Snow Light Snow
1:55 PM 24.8 °F 12.4 °F 17.6 °F 74% 29.54 in 0.5 mi SSW 15.0 mph 26.5 mph N/A Snow Light Snow
2:15 PM 24.8 °F 11.9 °F 17.6 °F 74% 29.54 in 0.5 mi SW 16.1 mph 28.8 mph N/A Snow Light Snow
2:35 PM 24.8 °F 12.9 °F 17.6 °F 74% 29.54 in 0.8 mi SW 13.8 mph 27.6 mph N/A Snow Light Snow
2:55 PM 24.8 °F 14.6 °F 17.6 °F 74% 29.54 in 0.8 mi SW 10.4 mph 23.0 mph N/A Snow Light Snow
3:15 PM 24.8 °F 12.9 °F 17.6 °F 74% 29.54 in 0.8 mi SW 13.8 mph 27.6 mph N/A Snow Light Snow
3:35 PM 24.8 °F 10.7 °F 17.6 °F 74% 29.53 in 0.5 mi SW 19.6 mph 27.6 mph N/A Snow Light Snow
3:55 PM 24.8 °F 12.9 °F 17.6 °F 74% 29.54 in 0.5 mi WSW 13.8 mph 33.4 mph N/A Snow Light Snow
4:15 PM 24.8 °F 10.7 °F 19.4 °F 80% 29.53 in 0.8 mi WSW 19.6 mph 31.1 mph N/A Snow Light Snow
4:35 PM 24.8 °F 13.4 °F 19.4 °F 80% 29.54 in 0.5 mi West 12.7 mph 23.0 mph N/A Snow Snow
4:55 PM 23.0 °F 11.1 °F 19.4 °F 86% 29.54 in 0.5 mi West 12.7 mph 20.7 mph N/A Snow Snow
5:15 PM 23.0 °F 13.1 °F 19.4 °F 86% 29.54 in 0.2 mi West 9.2 mph - N/A Snow Snow
5:35 PM 23.0 °F 15.8 °F 19.4 °F 86% 29.54 in 0.2 mi SSW 5.8 mph 18.4 mph N/A Snow Snow
5:55 PM 24.8 °F 10.3 °F 17.6 °F 74% 29.54 in 0.8 mi WSW 20.7 mph 28.8 mph N/A Snow Light Snow
6:15 PM 23.0 °F 8.7 °F 17.6 °F 80% 29.53 in 0.5 mi WSW 18.4 mph 29.9 mph N/A Snow Snow
6:35 PM 24.8 °F 13.4 °F 19.4 °F 80% 29.52 in 0.5 mi SW 12.7 mph 26.5 mph N/A Snow Snow
6:55 PM 23.0 °F - 17.6 °F 80% 29.54 in 0.2 mi North - - N/A Snow Heavy Snow
7:15 PM 23.0 °F 8.3 °F 17.6 °F 80% 29.56 in 0.2 mi West 19.6 mph 33.4 mph N/A Snow Heavy Snow
7:35 PM 23.0 °F - 17.6 °F 80% 29.55 in 0.2 mi North - - N/A Snow Heavy Snow
7:55 PM 23.0 °F - 17.6 °F 80% 29.54 in 0.2 mi North - - N/A Snow Heavy Snow
8:15 PM 19.4 °F -2.4 °F 14.0 °F 80% 29.56 in 0.2 mi West 43.7 mph - N/A Snow Heavy Snow
8:35 PM 19.4 °F -2.0 °F 14.0 °F 80% 29.57 in 0.2 mi West 41.4 mph - N/A Snow Heavy Snow
8:55 PM 19.4 °F -3.1 °F 14.0 °F 80% 29.54 in 0.2 mi West 47.2 mph 61.0 mph N/A Snow Snow
9:15 PM 19.4 °F -0.0 °F 14.0 °F 80% 29.58 in 0.5 mi West 32.2 mph 44.9 mph N/A Snow Snow
9:35 PM 19.4 °F 0.2 °F 14.0 °F 80% 29.58 in 0.2 mi West 31.1 mph 50.6 mph N/A Snow Heavy Snow
9:55 PM 19.4 °F -1.3 °F 14.0 °F 80% 29.57 in 0.2 mi West 38.0 mph 49.5 mph N/A Snow Heavy Snow
10:15 PM 19.4 °F -0.8 °F 14.0 °F 80% 29.58 in 0.2 mi West 35.7 mph 54.1 mph N/A Snow Heavy Snow
10:35 PM 19.4 °F -1.3 °F 14.0 °F 80% 29.58 in 0.2 mi West 38.0 mph 52.9 mph N/A Snow Snow
10:55 PM 19.4 °F -2.4 °F 14.0 °F 80% 29.58 in 0.2 mi West 43.7 mph 62.1 mph N/A Snow Snow
11:15 PM 19.4 °F -1.1 °F 14.0 °F 80% 29.58 in 0.2 mi West 36.8 mph 62.1 mph N/A Snow Light Snow
11:35 PM 19.4 °F -1.1 °F 14.0 °F 80% 29.58 in 0.2 mi West 36.8 mph 51.8 mph N/A Snow Snow
11:55 PM 19.4 °F -3.6 °F 12.2 °F 74% 29.58 in 0.2 mi West 50.6 mph - N/A Snow Heavy Snow